Wind_Speed
7 7 7 7 7 7 6 5 4 4 4 4 4 5 5 5 4 4 4 4 4 4 4 4 4 5 5 6 6 5 5 5 5 4 4 4 4 4 4 4 3 3 4
8 7 7 8 8 7 6 5 4 5 4 5 4 5 5 5 5 5 5 5 5 5 5 4 5 5 5 6 6 6 6 5 5 5 5 5 5 5 5 5 4 4 4
8 8 8 7 7 7 7 6 6 6 5 5 5 5 5 5 6 6 5 5 5 6 6 4 4 4 5 5 5 5 6 6 6 6 6 6 6 5 6 6 5 5 5
9 8 7 7 7 7 7 6 6 6 6 5 5 5 5 5 5 6 6 5 5 5 6 5 5 4 5 6 6 6 6 7 7 7 7 7 7 6 7 6 6 7 6
9 9 8 7 7 7 7 7 7 6 6 6 6 6 6 5 5 5 5 5 5 5 5 5 5 5 6 7 7 7 6 6 6 7 8 8 8 7 7 7 7 8 7
9 9 9 7 6 7 7 8 8 8 8 7 7 7 6 6 6 6 6 6 6 6 6 6 5 5 6 6 7 7 7 7 7 7 7 8 8 7 7 7 7 8 8
9 9 9 8 7 8 8 9 9 9 8 8 8 7 7 6 6 6 5 5 5 6 6 6 6 5 6 7 7 7 7 7 7 7 7 7 8 7 7 7 7 8 9
10 10 10 8 8 8 9 9 9 9 9 9 8 8 7 7 7 6 6 6 5 5 5 5 5 5 4 5 6 7 6 7 8 8 8 8 7 7 8 8 8 8 9
11 10 10 11 10 10 9 10 9 10 10 10 9 8 8 8 8 7 6 6 6 6 6 5 6 5 4 5 6 7 7 8 8 7 8 8 9 9 7 7 8 8 8
11 11 11 11 11 11 10 10 10 10 11 11 10 9 8 8 8 7 7 7 6 6 6 6 6 6 5 5 5 6 7 7 9 8 8 8 8 8 8 8 8 8 8
12 11 11 11 11 11 11 10 11 11 12 12 11 10 9 9 8 8 8 8 7 7 7 7 8 8 7 7 7 7 7 7 8 9 9 9 8 8 9 9 9 9 8
12 12 12 11 11 11 11 11 11 11 12 12 12 11 10 9 9 9 9 8 8 8 8 7 8 9 9 9 9 8 8 7 8 8 9 9 8 8 9 10 9 9 9
12 12 13 12 11 11 11 11 11 11 12 13 12 12 11 10 11 10 9 9 8 9 9 8 9 9 10 10 9 9 8 8 8 9 9 9 9 9 9 9 10 10 10
13 13 13 13 12 11 11 11 11 11 12 13 13 13 13 11 12 11 11 10 10 10 10 9 9 9 9 9 9 9 9 9 9 9 9 9 9 9 10 11 10 11 11
14 13 13 13 13 12 12 13 13 12 12 12 13 13 13 12 13 13 13 12 11 11 11 11 10 10 10 9 9 10 10 10 10 9 9 9 10 10 11 12 11 11 12
15 14 14 14 14 13 13 13 13 14 13 13 13 13 13 14 14 14 13 13 13 12 12 12 11 10 10 10 9 9 9 10 10 10 9 10 10 11 12 13 12 13 14
15 15 14 14 14 14 14 14 14 14 14 14 14 14 14 15 15 15 15 14 13 13 13 13 12 11 11 11 10 10 10 10 11 11 11 12 12 12 13 14 14 15 15
16 15 14 14 14 14 14 13 13 13 14 14 15 15 15 16 16 16 15 15 14 14 14 14 14 13 12 12 13 12 12 12 12 13 13 13 14 13 14 15 16 16 16
16 15 14 14 14 14 14 13 14 14 15 15 15 14 15 16 16 16 16 16 16 15 15 15 14 14 13 13 14 14 14 13 14 14 15 14 15 15 15 16 16 16 16
15 14 14 13 14 14 14 14 14 15 16 16 15 15 15 15 16 17 18 17 16 15 15 15 14 14 15 14 14 14 14 15 15 15 15 16 16 16 16 16 16 17 16
15 14 14 14 14 14 14 14 15 16 16 15 15 15 15 16 17 17 18 17 16 15 15 15 14 14 15 14 13 14 15 15 16 16 16 17 17 16 16 16 16 16 17
15 15 14 14 14 14 14 15 15 15 15 16 16 16 16 17 17 17 18 17 17 16 16 15 14 14 15 14 15 15 15 16 16 17 17 17 18 18 17 17 17 17 17
15 14 15 15 15 15 15 15 16 16 16 17 17 16 17 17 17 18 18 18 17 17 17 15 14 14 15 15 15 16 16 16 17 17 17 18 18 18 18 18 17 18 18
15 15 15 16 16 16 16 16 16 17 17 17 18 17 17 18 18 18 17 17 17 18 18 17 16 15 16 16 17 17 17 17 17 17 17 17 18 18 18 18 18 19 19
16 17 17 17 17 17 18 18 18 18 18 18 18 18 19 19 18 18 18 18 18 18 18 17 17 16 17 17 17 17 18 18 18 18 17 17 18 18 18 19 20 20 20
18 18 18 18 18 18 19 19 19 19 19 19 19 19 18 18 19 19 17 17 18 17 17 17 17 17 18 18 18 17 18 17 17 18 18 18 18 18 19 19 20 21 21
Wind_Direction
307 302 293 295 294 293 287 281 273 268 266 263 259 259 258 249 243 241 243 245 245 236 229 230 222 228 233 227 228 224 233 240 238 228 229 230 224 227 227 229 247 257 255
298 298 290 289 291 290 285 282 280 278 276 270 267 265 259 253 247 246 244 245 244 236 234 227 234 229 235 231 226 231 237 249 248 232 238 235 227 230 224 231 242 252 257
298 293 289 287 290 289 287 283 282 282 281 276 273 275 265 257 253 248 245 247 248 241 240 244 241 231 227 227 227 235 248 249 240 237 241 233 226 231 228 228 236 244 249
296 299 292 289 290 288 286 288 283 282 282 278 275 273 272 270 260 249 247 248 253 249 247 243 244 233 228 229 236 241 249 244 240 237 236 229 229 228 229 228 239 242 244
297 295 299 293 291 289 288 287 285 284 285 285 276 272 271 269 266 250 253 250 253 256 246 241 243 242 237 235 241 242 246 241 238 231 230 232 234 233 235 239 243 245 239
306 297 300 299 296 290 286 286 286 286 287 288 281 276 274 269 263 261 258 255 260 263 260 255 248 247 243 244 242 242 242 238 231 229 229 228 233 237 236 241 243 245 239
303 301 295 294 295 293 288 286 285 285 287 287 284 279 278 273 259 256 260 258 263 266 265 263 254 245 244 243 245 248 244 241 234 235 234 232 231 236 236 240 243 245 239
300 300 294 296 295 292 287 284 284 283 284 285 282 281 282 278 272 269 269 270 272 270 274 273 261 253 255 252 253 253 246 243 244 243 243 238 237 243 244 240 241 243 235
302 305 301 299 298 292 288 284 283 283 284 287 285 281 280 280 276 272 272 276 274 271 268 267 264 258 257 259 261 255 249 244 240 243 244 243 244 244 241 241 234 236 242
303 303 302 297 293 293 290 286 283 282 283 282 283 282 281 278 274 273 276 279 278 270 270 270 269 276 274 268 266 260 258 249 239 239 243 245 247 247 243 244 239 243 244
302 301 302 294 291 290 290 290 285 279 280 279 279 281 279 275 271 276 277 279 277 271 272 272 274 279 286 282 272 267 266 252 248 248 248 250 250 245 244 246 241 246 246
300 300 301 296 292 290 293 293 287 281 278 277 279 276 278 275 274 278 278 278 278 277 275 273 276 280 283 281 274 271 264 256 252 249 251 251 242 242 247 247 246 246 250
298 300 301 302 297 294 294 291 286 284 281 280 280 275 278 280 276 276 278 280 283 283 279 275 277 275 279 275 271 269 266 261 260 256 257 252 247 246 249 251 253 254 254
294 298 300 300 299 297 298 296 291 288 285 284 283 278 279 280 278 276 278 284 288 289 284 281 280 276 276 272 270 269 270 268 266 263 256 252 251 255 256 255 258 258 259
297 296 298 300 298 298 299 298 295 290 288 287 283 281 282 280 278 277 280 285 287 290 287 284 288 283 275 272 269 269 271 269 267 264 262 260 259 261 261 258 261 263 262
295 294 293 297 299 300 301 298 293 288 285 287 285 283 284 282 277 277 278 282 284 287 290 286 285 283 273 271 269 268 268 268 267 266 267 269 268 266 265 262 260 264 264
291 291 290 292 294 296 297 294 293 289 288 287 284 281 282 283 282 279 278 281 284 287 285 284 280 281 270 270 267 268 268 269 267 268 271 271 271 270 267 266 265 264 265
287 289 288 289 290 294 295 291 291 291 290 287 284 281 281 282 280 276 279 281 283 285 284 284 279 278 270 269 268 269 269 269 268 271 272 271 269 268 268 267 266 265 265
285 287 287 288 289 292 295 293 290 288 287 286 284 285 283 281 278 276 278 278 281 282 284 285 280 272 271 273 270 269 272 271 270 271 271 271 271 270 269 270 267 266 263
283 283 283 284 289 291 294 294 290 286 286 286 284 287 286 281 280 281 277 276 279 279 283 284 277 271 271 273 271 269 271 272 270 271 271 271 272 270 269 269 267 266 262
282 283 282 283 286 289 292 293 291 285 286 285 286 287 287 283 282 281 279 275 275 278 281 282 277 271 272 271 274 273 272 272 272 272 272 273 271 270 269 268 267 265 261
279 281 282 285 285 287 289 290 292 288 286 286 287 288 287 286 283 281 281 279 274 275 280 280 278 273 272 271 272 273 274 273 273 272 273 272 270 270 270 269 270 268 268
275 279 281 284 285 286 289 290 291 289 288 289 289 289 288 287 285 283 280 278 276 273 274 273 277 275 272 274 276 276 277 276 274 274 273 271 270 270 269 270 270 269 269
273 276 279 282 284 286 289 290 290 291 291 290 289 287 287 288 287 283 280 278 276 272 271 272 275 275 274 277 278 278 280 277 274 274 274 273 270 270 270 271 271 271 271
271 274 277 281 283 285 288 289 289 290 291 289 287 286 287 287 285 283 280 278 277 275 271 272 272 272 275 278 279 280 281 277 274 274 274 274 273 273 273 274 273 273 272
270 273 277 279 281 284 287 289 290 288 288 289 288 285 285 285 284 282 281 281 279 279 277 275 276 275 275 276 278 280 281 278 276 274 274 275 275 276 276 276 275 274 274
Height
5882 5881 5881 5880 5880 5879 5879 5878 5878 5877 5877 5877 5877 5876 5876 5876 5876 5876 5876 5876 5876 5876 5876 5876 5876 5876 5876 5877 5878 5878 5878 5879 5879 5880 5881 5882 5882 5883 5883 5884 5885 5885 5886
5882 5880 5879 5879 5879 5878 5878 5877 5877 5876 5876 5876 5876 5875 5875 5876 5875 5875 5875 5875 5875 5875 5875 5875 5875 5876 5876 5876 5877 5877 5878 5878 5878 5878 5879 5880 5881 5882 5883 5884 5884 5885 5885
5880 5879 5878 5878 5878 5877 5877 5877 5876 5876 5876 5875 5875 5875 5875 5874 5874 5874 5874 5874 5874 5874 5874 5874 5875 5875 5875 5876 5876 5877 5877 5877 5877 5878 5878 5879 5880 5881 5882 5883 5883 5884 5884
5879 5878 5877 5877 5877 5876 5876 5876 5875 5875 5875 5874 5874 5874 5874 5874 5873 5874 5874 5874 5874 5874 5874 5874 5874 5874 5875 5875 5875 5876 5876 5876 5877 5877 5878 5878 5879 5881 5882 5882 5883 5883 5884
5878 5877 5876 5876 5876 5876 5875 5875 5875 5874 5874 5874 5873 5873 5873 5873 5873 5873 5873 5873 5873 5873 5873 5873 5874 5874 5874 5874 5874 5875 5875 5875 5876 5876 5877 5878 5879 5880 5881 5881 5882 5883 5883
5877 5876 5876 5875 5875 5875 5874 5874 5874 5873 5873 5873 5873 5872 5872 5872 5872 5872 5872 5872 5872 5872 5872 5872 5872 5873 5873 5873 5873 5874 5874 5874 5875 5875 5876 5877 5878 5879 5880 5880 5881 5882 5882
5876 5875 5875 5874 5874 5874 5873 5873 5872 5872 5872 5872 5871 5871 5871 5871 5870 5871 5871 5871 5871 5871 5871 5871 5871 5872 5872 5872 5873 5873 5873 5873 5874 5874 5875 5876 5877 5878 5879 5879 5880 5880 5881
5874 5874 5873 5873 5872 5872 5872 5871 5871 5871 5871 5871 5870 5870 5870 5870 5870 5870 5870 5870 5870 5870 5870 5870 5870 5871 5871 5871 5872 5872 5872 5872 5872 5873 5874 5875 5876 5877 5877 5878 5879 5879 5880
5873 5872 5872 5871 5871 5871 5870 5870 5870 5870 5870 5869 5869 5869 5869 5869 5868 5868 5869 5869 5869 5869 5869 5869 5869 5870 5870 5870 5870 5870 5870 5870 5871 5872 5873 5874 5874 5875 5876 5877 5877 5878 5879
5871 5871 5870 5870 5869 5869 5869 5869 5868 5868 5868 5868 5868 5868 5867 5867 5867 5867 5868 5868 5868 5868 5868 5868 5868 5869 5869 5869 5869 5869 5869 5868 5869 5870 5871 5872 5872 5873 5874 5875 5876 5877 5879
5869 5869 5869 5868 5868 5868 5867 5867 5867 5867 5866 5866 5866 5866 5866 5866 5866 5866 5866 5867 5867 5867 5867 5867 5867 5867 5867 5867 5867 5867 5867 5867 5868 5869 5870 5871 5872 5872 5873 5874 5875 5876 5877
5868 5867 5866 5866 5866 5865 5865 5865 5865 5865 5865 5864 5864 5865 5864 5865 5865 5865 5865 5865 5865 5865 5865 5865 5866 5865 5866 5866 5866 5866 5866 5866 5867 5868 5868 5869 5870 5871 5871 5872 5873 5874 5875
5865 5865 5864 5864 5864 5863 5863 5863 5863 5863 5863 5863 5863 5863 5863 5863 5863 5863 5863 5863 5863 5863 5863 5864 5864 5864 5864 5864 5864 5865 5865 5865 5866 5867 5867 5868 5869 5869 5870 5871 5872 5873 5873
5864 5863 5863 5863 5862 5862 5862 5861 5862 5862 5862 5861 5861 5861 5861 5861 5862 5862 5862 5862 5862 5861 5861 5862 5861 5861 5861 5861 5862 5862 5863 5864 5864 5864 5865 5866 5867 5868 5868 5869 5870 5871 5871
5862 5862 5862 5861 5861 5860 5860 5860 5860 5860 5860 5859 5859 5859 5859 5859 5860 5860 5860 5860 5860 5859 5859 5859 5859 5859 5859 5859 5859 5860 5861 5862 5862 5862 5863 5864 5865 5866 5866 5867 5868 5869 5869
5860 5860 5861 5860 5859 5859 5858 5858 5857 5858 5858 5857 5857 5857 5857 5857 5858 5858 5858 5857 5857 5857 5857 5857 5856 5856 5857 5857 5857 5858 5858 5859 5859 5860 5860 5861 5862 5863 5864 5865 5866 5866 5867
5858 5858 5858 5858 5857 5857 5856 5856 5855 5855 5855 5855 5855 5855 5855 5855 5855 5855 5855 5855 5855 5855 5854 5854 5854 5854 5854 5855 5855 5856 5856 5857 5857 5857 5858 5859 5860 5861 5861 5862 5863 5864 5864
5856 5856 5856 5855 5855 5854 5854 5854 5853 5853 5852 5852 5852 5852 5852 5852 5852 5852 5853 5852 5852 5852 5852 5852 5851 5852 5852 5852 5853 5853 5854 5854 5855 5855 5855 5856 5857 5858 5859 5859 5860 5860 5861
5853 5853 5853 5853 5852 5852 5851 5851 5851 5850 5850 5850 5849 5849 5849 5849 5849 5849 5850 5850 5849 5849 5849 5849 5849 5849 5849 5849 5849 5850 5851 5851 5851 5852 5852 5853 5854 5854 5855 5856 5856 5856 5857
5850 5850 5850 5850 5850 5849 5849 5849 5848 5848 5847 5847 5846 5846 5846 5846 5846 5846 5846 5847 5846 5846 5846 5846 5845 5845 5845 5845 5845 5846 5847 5847 5847 5848 5848 5849 5850 5851 5851 5852 5852 5853 5853
5847 5847 5847 5847 5847 5847 5846 5846 5845 5845 5844 5844 5844 5843 5843 5843 5843 5843 5843 5843 5843 5843 5843 5843 5842 5842 5842 5842 5842 5842 5843 5843 5843 5844 5844 5845 5845 5846 5847 5847 5848 5849 5849
5844 5844 5844 5844 5844 5844 5844 5843 5842 5842 5841 5841 5841 5840 5840 5840 5840 5840 5839 5840 5839 5840 5840 5839 5839 5839 5839 5839 5839 5839 5839 5840 5840 5840 5840 5840 5841 5841 5842 5843 5844 5844 5845
5841 5841 5841 5841 5841 5841 5840 5840 5839 5839 5838 5838 5837 5837 5837 5836 5836 5836 5836 5836 5836 5836 5836 5836 5836 5836 5836 5836 5836 5836 5836 5836 5836 5836 5836 5836 5836 5836 5837 5838 5839 5840 5840
5837 5837 5838 5838 5838 5838 5837 5836 5836 5836 5835 5835 5834 5834 5833 5833 5833 5833 5833 5832 5833 5832 5833 5832 5832 5832 5832 5832 5832 5831 5831 5831 5831 5832 5832 5832 5832 5832 5833 5833 5834 5835 5835
5833 5833 5834 5834 5834 5834 5833 5833 5832 5832 5831 5831 5830 5830 5829 5829 5829 5829 5828 5828 5829 5828 5828 5828 5828 5828 5828 5828 5828 5827 5827 5826 5826 5827 5827 5828 5827 5828 5828 5828 5829 5829 5830
5828 5829 5829 5830 5830 5830 5829 5828 5828 5828 5827 5827 5826 5826 5825 5825 5825 5825 5824 5824 5824 5824 5824 5824 5824 5824 5824 5824 5823 5823 5822 5822 5822 5822 5823 5823 5823 5823 5823 5824 5824 5824 5824